Poughkeepsie, NY

3:35 PM EDT on April 27, 2017 (GMT -0400)
Dutchess County

Weather History for KPOU - September, 2011

Change the Weather History Date:

Sunday, September 11, 2011

  Actual Average Record
Temperature  
Mean Temperature 67 °F 65 °F  
Max Temperature 73 °F 77 °F 97 °F (1983)
Min Temperature 60 °F 53 °F 37 °F (1949)
Degree Days  
Heating Degree Days 0 3  
Month to date heating degree days 4 21  
Since 1 July heating degree days 5 38  
Cooling Degree Days 2 3  
Month to date cooling degree days 53 38  
Year to date cooling degree days 841 642  
Growing Degree Days 16 (Base 50)    
Moisture  
Dew Point 58 °F    
Average Humidity 80    
Maximum Humidity 90    
Minimum Humidity 66    
Precipitation  
Precipitation 0.00 in 0.14 in 3.19 in (1954)
Month to date precipitation 5.55 1.50  
Year to date precipitation 45.81 32.28  
Sea Level Pressure  
Sea Level Pressure 30.06 in    
Wind  
Wind Speed 2 mph (South)    
Max Wind Speed 7 mph    
Max Gust Speed 13 mph    
Visibility 10 miles    
Events      
T = Trace of Precipitation, MM = Missing Value Source: NWS Daily Summary

Daily Weather History Graph

Daily Weather History Graph

Search for Another Location

Airport or City:

Trip Planner

Search our weather history database for the weather conditions in past years. The results will help you decide how hot, cold, wet, or windy it might be!

Date:

Astronomy

Sep. 11, 2011 Rise Set
Actual Time 6:31 AM EDT 7:12 PM EDT
Civil Twilight 6:03 AM EDT 7:40 PM EDT
Nautical Twilight 5:30 AM EDT 8:13 PM EDT
Astronomical Twilight 4:55 AM EDT 8:47 PM EDT
Moon 6:32 PM EDT (9/11) 5:47 AM EDT (9/11)
Length of Visible Light 13h 36m
Length of Day
12h 40m
Full, 100% of the Moon is Illuminated
Sep 11
Full
Sep 12
Full
Sep 20
Last Quarter
Sep 27
New
Oct 3
First Quarter

Hourly Weather History & Observations

Time (EDT) Temp. Dew Point Humidity Pressure Visibility Wind Dir Wind Speed Gust Speed Precip Events Conditions
12:53 AM 60.1 °F 57.9 °F 93% 30.04 in 10.0 mi Calm Calm - N/A   Overcast
1:17 AM 60.8 °F 57.2 °F 88% 30.06 in 10.0 mi Calm Calm - N/A   Overcast
1:36 AM 60.8 °F 57.2 °F 88% 30.07 in 10.0 mi Calm Calm - N/A   Overcast
1:53 AM 62.1 °F 57.0 °F 84% 30.06 in 10.0 mi Calm Calm - N/A   Overcast
2:53 AM 62.1 °F 57.0 °F 84% 30.06 in 10.0 mi Calm Calm - N/A   Overcast
3:25 AM 60.8 °F 57.2 °F 88% 30.08 in 10.0 mi Calm Calm - N/A   Overcast
3:53 AM 61.0 °F 57.0 °F 87% 30.07 in 10.0 mi Calm Calm - N/A   Overcast
4:29 AM 60.8 °F 57.2 °F 88% 30.08 in 10.0 mi Calm Calm - N/A   Overcast
4:36 AM 60.8 °F 57.2 °F 88% 30.09 in 10.0 mi Calm Calm - N/A   Overcast
4:53 AM 61.0 °F 57.9 °F 90% 30.07 in 10.0 mi Calm Calm - N/A   Overcast
5:53 AM 62.1 °F 59.0 °F 90% 30.09 in 10.0 mi Calm Calm - N/A   Overcast
6:53 AM 61.0 °F 57.9 °F 90% 30.10 in 10.0 mi NNW 3.5 mph - N/A   Scattered Clouds
7:53 AM 62.6 °F 57.2 °F 82% 30.12 in 10.0 mi Calm Calm - N/A   Overcast
8:53 AM 64.9 °F 59.0 °F 81% 30.11 in 10.0 mi Calm Calm - N/A   Mostly Cloudy
9:53 AM 66.0 °F 57.0 °F 73% 30.12 in 10.0 mi SE 3.5 mph - N/A   Overcast
10:53 AM 66.9 °F 57.0 °F 70% 30.12 in 10.0 mi East 3.5 mph - N/A   Overcast
11:53 AM 68.0 °F 59.0 °F 73% 30.10 in 10.0 mi West 4.6 mph - N/A   Overcast
12:53 PM 71.1 °F 59.0 °F 66% 30.08 in 10.0 mi Calm Calm - N/A   Mostly Cloudy
1:53 PM 71.1 °F 59.0 °F 66% 30.06 in 10.0 mi Calm Calm - N/A   Mostly Cloudy
2:53 PM 72.0 °F 61.0 °F 68% 30.05 in 10.0 mi West 4.6 mph - N/A   Overcast
3:53 PM 72.0 °F 59.0 °F 64% 30.03 in 10.0 mi SSW 5.8 mph - N/A   Overcast
4:53 PM 72.0 °F 60.1 °F 66% 30.02 in 10.0 mi Calm Calm - N/A   Overcast
5:53 PM 70.0 °F 60.1 °F 71% 30.02 in 10.0 mi South 3.5 mph - N/A   Overcast
6:53 PM 69.1 °F 60.1 °F 73% 30.03 in 10.0 mi South 3.5 mph - N/A   Overcast
7:53 PM 68.0 °F 60.1 °F 76% 30.02 in 10.0 mi Calm Calm - N/A   Overcast
8:53 PM 64.4 °F 59.0 °F 83% 30.04 in 10.0 mi SSE 3.5 mph - N/A   Clear
9:53 PM 64.0 °F 59.0 °F 84% 30.01 in 10.0 mi South 3.5 mph - N/A   Clear
10:53 PM 63.0 °F 57.9 °F 84% 30.02 in 10.0 mi Calm Calm - N/A   Partly Cloudy
11:39 PM 60.8 °F 57.2 °F 88% 30.03 in 10.0 mi Calm Calm - N/A   Mostly Cloudy
11:53 PM 63.0 °F 59.0 °F 87% 30.02 in 10.0 mi Calm Calm - N/A   Overcast